EDT,Max TemperatureF,Mean TemperatureF,Min TemperatureF,Max Dew PointF,MeanDew PointF,Min DewpointF,Max Humidity, Mean Humidity, Min Humidity, Max Sea Level PressureIn, Mean Sea Level PressureIn, Min Sea Level PressureIn, Max VisibilityMiles, Mean VisibilityMiles, Min VisibilityMiles, Max Wind SpeedMPH, Mean Wind SpeedMPH, Max Gust SpeedMPH,PrecipitationIn, CloudCover, Events, WindDirDegrees
2013-8-1,85,79,73,74,72,70,93,85,70,30.01,29.97,29.91,10,8,2,13,5,17,0.10,6,Rain,220
2013-8-2,87,80,73,76,73,71,94,85,61,30.05,29.99,29.93,10,8,6,9,3,13,0.00,5,,195
2013-8-3,91,82,73,74,72,69,94,75,49,30.04,30.00,29.94,10,9,7,10,2,14,0.00,2,,244
2013-8-4,92,83,74,72,71,69,93,72,52,30.01,29.96,29.92,10,8,5,12,3,15,0.00,1,,14
2013-8-5,86,79,72,72,68,64,87,71,51,30.06,30.02,29.98,10,9,4,13,5,18,0.00,4,,118
2013-8-6,86,78,69,73,69,64,93,81,58,30.05,30.02,29.97,10,8,2,12,3,16,0.28,4,Rain,164
2013-8-7,88,81,73,71,70,66,93,75,51,30.09,30.04,30.01,10,9,5,9,3,12,0.00,4,,117
2013-8-8,91,81,71,74,71,68,93,73,50,30.07,30.04,30.01,10,9,5,10,2,13,0.00,1,,172
2013-8-9,91,83,74,76,73,72,94,79,56,30.12,30.08,30.02,10,8,1,13,5,16,T,3,,209
2013-8-10,92,83,74,75,72,69,94,74,49,30.14,30.11,30.06,10,10,7,12,4,16,0.00,1,,207
2013-8-11,94,84,74,74,71,66,94,69,41,30.15,30.10,30.05,10,10,10,15,6,21,0.00,0,,226
2013-8-12,94,85,76,77,74,71,94,73,49,30.09,30.03,29.97,10,9,5,13,3,18,0.00,1,,231
2013-8-13,91,83,75,76,74,71,94,78,59,29.99,29.92,29.84,10,8,2,17,6,24,0.48,3,Rain,231
2013-8-14,86,79,72,74,71,68,94,79,59,30.03,29.94,29.87,10,9,7,15,6,20,0.01,5,Rain,36
2013-8-15,72,67,62,70,62,57,93,88,78,30.12,30.07,30.01,10,7,2,16,7,24,1.24,8,Rain,54
2013-8-16,69,68,66,66,64,63,93,91,87,30.12,30.08,30.05,10,6,0,17,7,21,1.27,8,Fog-Rain,48
2013-8-17,72,69,66,67,65,64,93,90,84,30.17,30.11,30.06,10,6,2,9,4,12,0.01,8,Rain,31
2013-8-18,86,77,68,74,69,66,100,84,61,30.21,30.17,30.12,10,6,0,12,1,17,0.03,6,Fog-Rain,69
2013-8-19,85,79,72,74,72,70,94,90,70,30.15,30.11,30.07,10,7,0,8,5,10,3.56,7,Fog-Rain,45
2013-8-20,89,81,73,75,72,71,100,89,56,30.18,30.13,30.09,10,5,0,15,4,22,2.51,6,Fog-Rain,62
2013-8-21,90,81,71,75,72,70,100,87,52,30.24,30.18,30.12,10,5,0,13,2,17,T,5,Fog,157
2013-8-22,91,82,72,74,71,69,93,78,52,30.16,30.11,30.03,10,10,7,17,2,23,0.01,1,,255
2013-8-23,88,80,71,75,71,70,93,82,59,30.06,30.03,29.98,10,9,2,16,3,20,0.07,1,Rain,249
2013-8-24,82,76,69,70,68,66,90,79,62,30.24,30.15,30.02,10,10,7,14,5,18,0.00,5,,50
2013-8-25,84,75,65,65,60,56,93,67,40,30.34,30.28,30.25,10,10,10,16,7,22,0.00,0,,51
2013-8-26,84,74,63,65,61,57,93,68,47,30.29,30.22,30.14,10,10,10,12,4,14,0.00,2,,47
2013-8-27,87,75,63,70,65,61,93,73,48,30.16,30.07,30.01,10,10,3,8,2,12,0.00,0,,232
2013-8-28,90,79,68,72,67,65,93,72,44,30.04,30.00,29.95,10,9,7,12,3,14,0.00,1,,238
2013-8-29,95,82,69,76,69,66,90,71,43,29.96,29.93,29.87,10,8,5,15,4,20,0.00,1,,247
2013-8-30,87,80,73,72,71,68,93,78,55,30.04,29.98,29.94,10,8,6,10,4,14,0.00,5,,67
2013-8-31,89,80,71,73,71,69,93,83,55,30.00,29.95,29.89,10,7,0,14,2,21,0.00,5,Fog,194